Weather History for EHBK - November, 2012

Change the Weather History Date:

Monday, November 5, 2012

  Actual Average Record
Temperature  
Mean Temperature 42 °F -  
Max Temperature 47 °F 46 °F 66 °F (2011)
Min Temperature 35 °F 36 °F 35 °F (2003)
Degree Days  
Heating Degree Days 23    
Moisture  
Dew Point 41 °F    
Average Humidity 90    
Maximum Humidity 100    
Minimum Humidity 73    
Precipitation  
Precipitation 0.03 in 0.09 in - ()
Sea Level Pressure  
Sea Level Pressure 29.61 in    
Wind  
Wind Speed 11 mph ()    
Max Wind Speed 18 mph    
Max Gust Speed -    
Visibility 5.8 miles    
Events Fog , Rain    
Averages and records for this station are not official NWS values.
T = Trace of Precipitation, MM = Missing Value Source: Averaged Metar Reports

Daily Weather History Graph

Daily Weather History Graph

Search for Another Location

Airport or City:

Trip Planner

Search our weather history database for the weather conditions in past years. The results will help you decide how hot, cold, wet, or windy it might be!

Date:

Astronomy

Nov. 05, 2012 Rise Set
Actual Time 7:36 AM CET 5:04 PM CET
Civil Twilight 7:01 AM CET 5:39 PM CET
Nautical Twilight 6:21 AM CET 6:18 PM CET
Astronomical Twilight 5:43 AM CET 6:56 PM CET
Moon 10:24 PM CET (11/5) 12:49 PM CET (11/5)
Length of Visible Light 10h 38m
Length of Day
9h 27m
Waning Gibbous, 65% of the Moon is Illuminated
Nov 5
Waning Gibbous
Nov 7
Last Quarter
Nov 13
New
Nov 20
First Quarter
Nov 28
Full

Hourly Weather History & Observations

Time (CET) Temp. Windchill Dew Point Humidity Pressure Visibility Wind Dir Wind Speed Gust Speed Precip Events Conditions
12:25 AM 46.4 °F 39.2 °F 39.2 °F 76% 29.47 in 6.2 mi SSW 18.4 mph - N/A   Overcast
12:55 AM 44.6 °F 38.4 °F 39.2 °F 81% 29.47 in 6.2 mi SSW 12.7 mph - N/A   Partly Cloudy
1:00 AM 45 °F - 39 °F 73% 29.49 in 28 mi SSW 13.4 mph - -   Partly Cloudy
1:25 AM 44.6 °F 37.8 °F 39.2 °F 81% 29.47 in 6.2 mi SSW 15.0 mph - N/A   Unknown
1:55 AM 44.6 °F 37.4 °F 39.2 °F 81% 29.47 in 6.2 mi SSW 16.1 mph - N/A   Unknown
2:25 AM 44.6 °F 37.2 °F 39.2 °F 81% 29.47 in 6.2 mi SSW 17.3 mph - N/A   Unknown
2:55 AM 44.6 °F 37.4 °F 39.2 °F 81% 29.47 in 6.2 mi SSW 16.1 mph - N/A   Scattered Clouds
3:25 AM 44.6 °F 37.8 °F 39.2 °F 81% 29.47 in 6.2 mi SSW 15.0 mph - N/A   Unknown
3:55 AM 42.8 °F 35.8 °F 39.2 °F 87% 29.47 in 6.2 mi SSW 13.8 mph - N/A   Unknown
4:00 AM 43 °F - 39 °F 81% 29.49 in 25 mi SW 15.7 mph - -   Scattered Clouds
4:25 AM 42.8 °F 36.2 °F 39.2 °F 87% 29.47 in 6.2 mi SW 12.7 mph - N/A   Partly Cloudy
4:55 AM 42.8 °F 35.8 °F 39.2 °F 87% 29.47 in 6.2 mi SW 13.8 mph - N/A   Mostly Cloudy
5:25 AM 42.8 °F 35.8 °F 39.2 °F 87% 29.47 in 6.2 mi SSW 13.8 mph - N/A   Partly Cloudy
5:55 AM 42.8 °F 36.2 °F 39.2 °F 87% 29.47 in 6.2 mi SW 12.7 mph - N/A   Partly Cloudy
6:25 AM 42.8 °F 35.4 °F 39.2 °F 87% 29.50 in 6.2 mi SW 15.0 mph - N/A   Partly Cloudy
6:55 AM 42.8 °F 36.2 °F 41.0 °F 93% 29.50 in 6.2 mi SW 12.7 mph - N/A   Overcast
7:00 AM 43 °F - 40 °F 87% 29.53 in 19 mi SW 13.4 mph - -   Partly Cloudy
7:25 AM 42.8 °F 36.6 °F 41.0 °F 93% 29.50 in 6.2 mi WSW 11.5 mph - N/A   Overcast
7:55 AM 42.8 °F 36.6 °F 41.0 °F 93% 29.53 in 6.2 mi WSW 11.5 mph - N/A   Overcast
8:25 AM 44.6 °F 38.1 °F 41.0 °F 87% 29.53 in 6.2 mi WSW 13.8 mph - N/A   Overcast
8:55 AM 44.6 °F 39.2 °F 41.0 °F 87% 29.53 in 6.2 mi SW 10.4 mph - N/A   Overcast
9:25 AM 44.6 °F 38.1 °F 41.0 °F 87% 29.53 in 6.2 mi SW 13.8 mph - N/A   Overcast
9:55 AM 44.6 °F 38.4 °F 41.0 °F 87% 29.56 in 6.2 mi SW 12.7 mph - N/A   Overcast
10:00 AM 45 °F - 41 °F 82% 29.58 in 16 mi WSW 13.4 mph - -   Overcast
10:25 AM 44.6 °F 38.8 °F 41.0 °F 87% 29.56 in 6.2 mi WSW 11.5 mph - N/A   Overcast
10:55 AM 46.4 °F 41.1 °F 41.0 °F 81% 29.56 in 6.2 mi WSW 11.5 mph - N/A   Mostly Cloudy
11:25 AM 46.4 °F 41.9 °F 41.0 °F 81% 29.56 in 6.2 mi WSW 9.2 mph - N/A   Overcast
11:55 AM 46.4 °F 41.9 °F 41.0 °F 81% 29.59 in 6.2 mi WSW 9.2 mph - N/A   Overcast
12:25 PM 46.4 °F 41.5 °F 41.0 °F 81% 29.59 in 6.2 mi WSW 10.4 mph - N/A Rain Heavy Drizzle
12:55 PM 46.4 °F 41.9 °F 42.8 °F 87% 29.59 in 6.2 mi WSW 9.2 mph - N/A   Overcast
1:00 PM 47 °F - 43 °F 82% 29.62 in 16 mi WSW 8.9 mph - - Rain Rain
1:25 PM 46.4 °F 41.5 °F 42.8 °F 87% 29.59 in 6.2 mi WSW 10.4 mph - N/A   Overcast
1:55 PM 46.4 °F 41.5 °F 41.0 °F 81% 29.62 in 6.2 mi SW 10.4 mph - N/A   Partly Cloudy
2:25 PM 46.4 °F 41.5 °F 41.0 °F 81% 29.62 in 6.2 mi WSW 10.4 mph - N/A   Overcast
2:55 PM 44.6 °F 39.2 °F 42.8 °F 93% 29.62 in 6.2 mi WSW 10.4 mph - N/A   Drizzle
3:25 PM 44.6 °F 40.7 °F 42.8 °F 93% 29.62 in 6.2 mi WSW 6.9 mph - N/A   Drizzle
3:55 PM 44.6 °F 42.2 °F 42.8 °F 93% 29.65 in 6.2 mi WSW 4.6 mph - N/A   Drizzle
4:00 PM 44 °F - 42 °F 92% 29.68 in 6 mi West 6.7 mph - - Rain Light Rain
4:25 PM 44.6 °F 41.4 °F 42.8 °F 93% 29.65 in 5.0 mi West 5.8 mph - N/A Rain Light Rain Showers
4:55 PM 44.6 °F 41.4 °F 42.8 °F 93% 29.68 in 5.0 mi West 5.8 mph - N/A   Partly Cloudy
5:25 PM 42.8 °F 40.1 °F 42.8 °F 100% 29.68 in 4.3 mi West 4.6 mph - N/A   Mostly Cloudy
5:55 PM 42.8 °F 39.3 °F 42.8 °F 100% 29.68 in 3.7 mi West 5.8 mph - N/A   Overcast
6:25 PM 42.8 °F 40.1 °F 42.8 °F 100% 29.71 in - West 4.6 mph - N/A   Partly Cloudy
6:55 PM 42.8 °F 41.1 °F 42.8 °F 100% 29.74 in - West 3.5 mph - N/A   Partly Cloudy
7:00 PM 42 °F - 41 °F 97% 29.77 in 2 mi West 4.5 mph - - Rain Drizzle
7:25 PM 41.0 °F 38.0 °F 41.0 °F 100% 29.74 in 1.8 mi West 4.6 mph - N/A   Partly Cloudy
7:55 PM 41.0 °F 38.0 °F 41.0 °F 100% 29.77 in - WSW 4.6 mph - N/A   Partly Cloudy
8:25 PM 39.2 °F 35.0 °F 39.2 °F 100% 29.77 in 5.6 mi WSW 5.8 mph - N/A   Unknown
8:55 PM 39.2 °F 35.0 °F 39.2 °F 100% 29.80 in - SW 5.8 mph - N/A   Partly Cloudy
9:25 PM 41.0 °F 37.1 °F 41.0 °F 100% 29.80 in 0.2 mi WSW 5.8 mph - N/A Fog Fog
9:55 PM 41.0 °F 37.1 °F 41.0 °F 100% 29.83 in 0.6 mi WSW 5.8 mph - N/A   Overcast
10:00 PM 40 °F - 40 °F 100% 29.85 in 0 mi SW 6.7 mph - - Fog Fog
10:25 PM 39.2 °F 34.2 °F 39.2 °F 100% 29.83 in 0.2 mi SW 6.9 mph - N/A Fog Fog
10:55 PM 37.4 °F 32.1 °F 37.4 °F 100% 29.83 in 0.2 mi SW 6.9 mph - N/A Fog Fog
11:25 PM 37.4 °F 32.1 °F 37.4 °F 100% 29.83 in 3.1 mi SW 6.9 mph - N/A   Mist
11:55 PM 35.6 °F 30.7 °F 35.6 °F 100% 29.86 in 3.7 mi SW 5.8 mph - N/A   Unknown